This is the latest recevied weather packets stored in our database for station/object AD8AK. If no packets are shown the sender has not sent any weather packets the latest 10 day(s).
| Time | Temp. | Humidity | Pressure | Rain* | Wind** | Luminosity | Snow |
|---|---|---|---|---|---|---|---|
| 1777639437 | 5.56° C | 94% | 1012.2 hPa | 0 mm | - | - | - |
| 1777639136 | 5.56° C | 94% | 1012.1 hPa | 0 mm | - | - | - |
| 1777638834 | 5.56° C | 94% | 1012.1 hPa | 0 mm | - | - | - |
| 1777638529 | 5.56° C | 94% | 1012.3 hPa | 1.27 mm | - | - | - |
| 1777638227 | 5.56° C | 94% | 1012.3 hPa | 1.27 mm | - | - | - |
| 1777637923 | 5.56° C | 94% | 1012.1 hPa | 1.78 mm | - | - | - |
| 1777637619 | 5.56° C | 94% | 1012.4 hPa | 3.05 mm | - | - | - |
| 1777637317 | 5.56° C | 94% | 1012.6 hPa | 1.27 mm | - | - | - |
| 1777637013 | 5.56° C | 94% | 1012.7 hPa | 0 mm | - | - | - |
| 1777636708 | 5.56° C | 94% | 1012.7 hPa | 1.78 mm | - | - | - |
| 1777636405 | 5.56° C | 94% | 1012.7 hPa | 1.27 mm | - | - | - |
| 1777636101 | 5.56° C | 94% | 1012.5 hPa | 1.27 mm | - | - | - |
| 1777635796 | 5.56° C | 94% | 1012.6 hPa | 1.78 mm | - | - | - |
| 1777635493 | 5.56° C | 94% | 1012.4 hPa | 1.78 mm | - | - | - |
| 1777635190 | 5.56° C | 94% | 1012.4 hPa | 1.27 mm | - | - | - |
| 1777634886 | 5.56° C | 94% | 1012.5 hPa | 1.27 mm | - | - | - |
| 1777634583 | 5.56° C | 94% | 1012.4 hPa | 0 mm | - | - | - |
| 1777634280 | 5.56° C | 94% | 1012.2 hPa | 0 mm | - | - | - |
| 1777633976 | 5.56° C | 94% | 1012.3 hPa | 0 mm | - | - | - |
| 1777633674 | 5.56° C | 94% | 1012.1 hPa | 0 mm | - | - | - |
| 1777633372 | 5.56° C | 94% | 1012 hPa | 0 mm | - | - | - |
| 1777633069 | 5.56° C | 94% | 1012.1 hPa | 0 mm | - | - | - |
| 1777632765 | 5° C | 94% | 1012.1 hPa | 0 mm | - | - | - |
| 1777632461 | 5° C | 94% | 1012.1 hPa | 0 mm | - | - | - |
| 1777632159 | 5° C | 94% | 1012.5 hPa | 0 mm | - | - | - |
* Rain latest hour (hover to see other rain measurements)
** Current wind speed in m/s (hover to see current wind gust speed)